This is the latest recevied weather packets stored in our database for station/object AD7ZD. If no packets are shown the sender has not sent any weather packets the latest 10 day(s).
| Time | Temp. | Humidity | Pressure | Rain* | Wind** | Luminosity | Snow |
|---|---|---|---|---|---|---|---|
| 1777348775 | 9.44° C | 44% | 1013.3 hPa | 0 mm | - | 0 W/m² | - |
| 1777348474 | 10° C | 43% | 1013.1 hPa | 0 mm | - | 0 W/m² | - |
| 1777348171 | 10° C | 43% | 1013.3 hPa | 0 mm | - | 0 W/m² | - |
| 1777347869 | 10° C | 43% | 1013 hPa | 0 mm | - | 0 W/m² | - |
| 1777347567 | 10° C | 43% | 1012.9 hPa | 0 mm | - | 0 W/m² | - |
| 1777347262 | 10° C | 43% | 1012.7 hPa | 0 mm | - | 0 W/m² | - |
| 1777346959 | 10° C | 43% | 1012.7 hPa | 0 mm | - | 0 W/m² | - |
| 1777346656 | 10° C | 43% | 1012.6 hPa | 0 mm | - | 0 W/m² | - |
| 1777346351 | 10.56° C | 42% | 1012.5 hPa | 0 mm | - | 0 W/m² | - |
| 1777346049 | 10.56° C | 42% | 1012.6 hPa | 0 mm | - | 0 W/m² | - |
| 1777345746 | 10.56° C | 42% | 1012.5 hPa | 0 mm | - | 0 W/m² | - |
| 1777345443 | 11.11° C | 42% | 1012.2 hPa | 0 mm | - | 0 W/m² | - |
| 1777345139 | 11.11° C | 42% | 1012 hPa | 0 mm | - | 0 W/m² | - |
| 1777344836 | 11.11° C | 42% | 1012.1 hPa | 0 mm | - | 0 W/m² | - |
| 1777344531 | 11.11° C | 42% | 1012.2 hPa | 0 mm | - | 0 W/m² | - |
| 1777344229 | 11.11° C | 42% | 1012.1 hPa | 0 mm | - | 1 W/m² | - |
| 1777343926 | 11.11° C | 42% | 1012.1 hPa | 0 mm | - | 5 W/m² | - |
| 1777343624 | 11.11° C | 41% | 1011.8 hPa | 0 mm | - | 7 W/m² | - |
| 1777343321 | 11.67° C | 40% | 1011.8 hPa | 0 mm | - | 11 W/m² | - |
| 1777343019 | 11.67° C | 39% | 1011.8 hPa | 0 mm | - | 12 W/m² | - |
| 1777342716 | 12.22° C | 38% | 1011.7 hPa | 0 mm | - | 15 W/m² | - |
| 1777342412 | 12.22° C | 38% | 1011.6 hPa | 0 mm | - | 18 W/m² | - |
| 1777342109 | 12.22° C | 37% | 1011.6 hPa | 0 mm | - | 24 W/m² | - |
| 1777341805 | 12.22° C | 38% | 1011.6 hPa | 0 mm | - | 31 W/m² | - |
| 1777341502 | 12.78° C | 37% | 1011.6 hPa | 0 mm | - | 34 W/m² | - |
* Rain latest hour (hover to see other rain measurements)
** Current wind speed in m/s (hover to see current wind gust speed)